Stations météo

Publicité
Chateaudun, France (7140): Température de l'air & dewpoint: 19.11.2020 23:00:00 - 25.11.2020 23:00:00 (CET)Chateaudun, France (7140): Température de l'air 5cm: 19.11.2020 23:00:00 - 25.11.2020 23:00:00 (CET)Chateaudun, France (7140): Vitesse du vent & gusts: 19.11.2020 23:00:00 - 25.11.2020 23:00:00 (CET)Chateaudun, France (7140): Direction du vent: 19.11.2020 23:00:00 - 25.11.2020 23:00:00 (CET)Chateaudun, France (7140): reduced air pressure: 19.11.2020 23:00:00 - 25.11.2020 23:00:00 (CET)Chateaudun, France (7140): visibility: 19.11.2020 23:00:00 - 25.11.2020 23:00:00 (CET)Chateaudun, France (7140): Ensoleillement: 19.11.2020 23:00:00 - 25.11.2020 23:00:00 (CET)Chateaudun, France (7140): Quantités de précipitations: 19.11.2020 23:00:00 - 25.11.2020 23:00:00 (CET)
Date & Time tt [°C] td [°C] tt 5cm [°C] ff [km/h] ff [knt] fx [km/h] fx [knt] dd ppp [hPa] vv [km] sd [min] rr [mm]
25.11.2020 23:00:00 - - - - - - - - - - - -
25.11.2020 22:00:00 1,6 0,9 -2,7 0 0 14 7 N 1018,9 0,5 0 0,0
25.11.2020 21:00:00 3,9 3,6 -2,7 3 2 5 3 ESE 1018,3 3,9 0 0,0
25.11.2020 20:00:00 2,8 2,1 -1,9 3 2 5 3 NE 1018,4 5 0 0,0
25.11.2020 19:00:00 4,9 4,2 -1,2 0 0 5 3 N 1017,9 8 0 0,0
25.11.2020 18:00:00 7,0 5,5 0,1 4 2 7 4 E 1017,1 19 0 0,0
25.11.2020 17:00:00 9,5 6,2 5,4 7 4 10 5 ESE 1016,5 33 38 0,0
25.11.2020 16:00:00 12,8 7,5 12,0 8 5 13 7 SE 1016,0 42 60 0,0
25.11.2020 15:00:00 13,5 7,5 13,0 9 5 18 10 SSE 1016,0 33 60 0,0
25.11.2020 14:00:00 13,4 7,6 16,8 13 7 19 10 S 1016,1 31 60 0,0
25.11.2020 13:00:00 13,0 7,9 13,2 14 7 19 10 S 1016,1 20 53 0,0
25.11.2020 12:00:00 10,8 7,5 9,1 9 5 16 9 SSW 1016,8 20 6 0,0
25.11.2020 11:00:00 8,6 6,4 7,7 9 5 14 8 S 1017,2 23 0 0,0
25.11.2020 10:00:00 7,6 5,9 6,7 11 6 16 8 S 1016,9 19 0 0,0
25.11.2020 09:00:00 6,6 5,5 3,6 9 5 13 7 S 1016,7 18 0 0,0
25.11.2020 08:00:00 5,4 4,4 1,9 6 4 10 6 S 1016,2 11 0 0,0
25.11.2020 07:00:00 6,1 4,4 4,6 10 5 16 8 S 1015,9 20 0 0,0
25.11.2020 06:00:00 6,1 4,6 5,1 10 6 13 7 S 1015,6 20 0 0,0
25.11.2020 05:00:00 6,8 5,1 5,5 10 5 16 8 S 1015,2 18 0 0,0
25.11.2020 04:00:00 6,1 4,6 4,4 10 5 14 7 S 1015,4 21 0 0,0
25.11.2020 03:00:00 4,8 4,5 -1,7 4 2 10 6 S 1015,6 19 0 0,0
25.11.2020 02:00:00 2,4 1,8 -2,8 5 3 8 4 SSE 1015,9 16 0 0,0
25.11.2020 01:00:00 1,5 0,6 -2,7 6 3 7 4 SSE 1016,4 11 0 0,0
25.11.2020 00:00:00 3,0 2,0 -1,4 6 4 10 5 SSE 1016,5 16 0 0,0
24.11.2020 23:00:00 3,3 2,3 -0,9 5 3 9 5 ESE 1016,8 9 0 0,0
24.11.2020 22:00:00 4,2 3,3 -0,4 3 2 11 6 SSE 1016,9 9 0 0,0
24.11.2020 21:00:00 4,9 3,7 0,5 4 2 9 5 ESE 1017,1 10 0 0,0
24.11.2020 20:00:00 5,0 3,3 2,4 6 4 13 7 SSE 1017,4 12 0 0,0
24.11.2020 19:00:00 6,0 3,8 1,0 11 6 13 7 E 1017,4 18 0 0,0
24.11.2020 18:00:00 6,0 4,0 2,0 9 5 11 6 E 1017,7 22 0 0,0
24.11.2020 17:00:00 8,9 5,1 5,9 5 3 9 5 E 1018,1 29 40 0,0
24.11.2020 16:00:00 10,8 5,5 10,6 6 3 14 8 ESE 1018,6 49 50 0,0
24.11.2020 15:00:00 11,1 5,2 12,0 9 5 14 7 ESE 1019,3 14 60 0,0
24.11.2020 14:00:00 10,6 4,5 13,1 10 5 16 8 SE 1020,1 26 60 0,0
24.11.2020 13:00:00 9,2 5,0 9,8 8 4 14 8 SE 1021,0 21 60 0,0
24.11.2020 12:00:00 5,9 4,9 6,8 5 3 9 5 ESE 1022,3 25 40 0,0
24.11.2020 11:00:00 3,5 3,4 3,1 3 2 5 3 ENE 1023,4 6 54 0,2
24.11.2020 10:00:00 1,0 0,9 0,0 0 0 4 2 N 1024,0 0,4 2 0,0
24.11.2020 09:00:00 0,3 0,2 -0,3 2 1 4 2 NNE 1024,4 0,1 0 0,0
24.11.2020 08:00:00 0,2 0,1 -0,3 0 0 6 3 N 1024,8 0,2 0 0,0
24.11.2020 07:00:00 0,2 0,1 -0,4 4 2 8 5 N 1025,0 0,2 0 0,0
24.11.2020 06:00:00 0,4 0,3 -0,3 3 2 7 4 NNE 1025,4 0,2 0 0,0
24.11.2020 05:00:00 0,3 0,2 -2,5 4 2 7 4 N 1025,9 0,2 0 0,0
24.11.2020 04:00:00 -0,1 -0,2 -2,4 3 2 4 2 NNE 1026,4 0,3 0 0,0
24.11.2020 03:00:00 0,6 0,5 -1,9 0 0 7 4 N 1027,0 0,1 0 0,0
24.11.2020 02:00:00 0,2 -0,1 -2,4 2 1 5 3 NE 1027,5 0,1 0 0,0
24.11.2020 01:00:00 0,9 0,6 -2,7 0 0 6 3 N 1028,3 0,1 0 0,0
24.11.2020 00:00:00 0,7 0,3 -2,0 3 2 5 3 SSE 1028,7 0,1 0 0,0
23.11.2020 23:00:00 2,1 1,8 -2,6 2 1 5 3 WNW 1029,1 0,2 0 0,0
23.11.2020 22:00:00 2,5 2,2 -2,5 5 3 8 5 S 1029,6 0,2 0 0,0
23.11.2020 21:00:00 2,5 1,9 -2,5 7 4 8 4 S 1029,7 0,2 0 0,0
23.11.2020 20:00:00 3,2 2,5 -1,6 4 2 8 4 S 1029,8 0,5 0 0,0
23.11.2020 19:00:00 4,1 3,4 -1,1 5 3 8 4 SW 1029,7 18 0 0,0
23.11.2020 18:00:00 6,0 5,0 -0,1 6 3 8 4 SW 1029,4 46 0 0,0
23.11.2020 17:00:00 9,5 5,7 5,7 5 3 11 6 SSW 1029,1 58 40 0,0
23.11.2020 16:00:00 11,7 6,8 11,1 9 5 11 6 SW 1029,0 51 60 0,0
23.11.2020 15:00:00 12,0 6,9 12,2 9 5 14 7 W 1029,0 41 47 0,0
23.11.2020 14:00:00 11,6 7,5 12,9 10 5 17 9 SSW 1029,6 48 0 0,0
23.11.2020 13:00:00 11,4 6,9 11,9 12 7 16 9 SW 1029,9 35 12 0,0
23.11.2020 12:00:00 10,1 7,3 10,1 9 5 12 6 SSW 1030,7 29 0 0,0
23.11.2020 11:00:00 8,8 6,8 8,5 8 4 10 6 S 1030,9 29 0 0,0
23.11.2020 10:00:00 7,5 6,0 7,0 5 3 6 4 S 1030,6 17 0 0,0
23.11.2020 09:00:00 6,7 5,6 6,3 4 2 5 3 ESE 1030,3 13 0 0,0
23.11.2020 08:00:00 6,4 5,3 6,2 4 2 10 5 S 1029,8 14 0 0,0
23.11.2020 07:00:00 6,4 5,3 6,2 4 2 5 3 SSW 1029,7 16 0 0,0
23.11.2020 06:00:00 6,4 5,3 6,1 0 0 10 6 N 1029,4 13 0 0,0
23.11.2020 05:00:00 6,5 5,3 6,0 2 1 9 5 SSE 1029,2 10 0 0,0
23.11.2020 04:00:00 6,1 5,2 5,9 5 3 7 4 SW 1029,3 10 0 0,0
23.11.2020 03:00:00 6,0 5,1 5,4 3 2 9 5 S 1029,6 10 0 0,0
23.11.2020 02:00:00 5,3 4,9 4,6 0 0 3 2 N 1029,7 7 0 0,0
23.11.2020 01:00:00 4,9 4,5 0,1 0 0 7 4 N 1030,0 6 0 0,0
23.11.2020 00:00:00 2,7 2,3 -1,4 0 0 4 2 N 1029,9 7 0 0,0
22.11.2020 23:00:00 2,7 2,0 -1,4 4 2 6 3 SSW 1029,8 9 0 0,0
22.11.2020 22:00:00 3,4 2,4 -0,2 4 2 6 3 WSW 1029,9 11 0 0,0
22.11.2020 21:00:00 4,4 2,9 1,3 0 0 4 2 N 1029,7 19 0 0,0
22.11.2020 20:00:00 5,8 4,1 2,7 4 2 6 4 WNW 1029,5 43 0 0,0
22.11.2020 19:00:00 5,6 3,1 3,0 0 0 2 1 N 1029,2 43 0 0,0
22.11.2020 18:00:00 7,4 3,8 3,3 0 0 3 2 N 1029,1 45 0 0,0
22.11.2020 17:00:00 10,3 4,0 6,0 0 0 7 4 N 1028,6 51 41 0,0
22.11.2020 16:00:00 11,5 4,0 10,5 2 1 8 4 WNW 1028,5 25 60 0,0
22.11.2020 15:00:00 11,4 3,7 11,7 0 0 6 3 N 1028,4 40 60 0,0
22.11.2020 14:00:00 11,2 2,5 14,7 2 1 7 4 SSE 1028,7 35 60 0,0
22.11.2020 13:00:00 9,5 2,3 9,6 5 3 9 5 S 1029,6 28 60 0,0
22.11.2020 12:00:00 6,2 3,7 6,2 0 0 4 2 N 1030,6 12 10 0,0
22.11.2020 11:00:00 3,8 3,2 3,3 0 0 3 2 N 1031,0 6 0 0,2
22.11.2020 10:00:00 2,0 1,7 0,0 0 0 4 2 N 1031,2 5 0 0,0
22.11.2020 09:00:00 0,1 -0,5 -3,2 4 2 4 2 SE 1031,1 6 10 0,0
22.11.2020 08:00:00 -0,8 -1,4 -3,5 0 0 3 1 N 1031,2 3,8 0 0,0
22.11.2020 07:00:00 -0,6 -1,2 -3,6 0 0 2 1 N 1031,0 6 0 0,0
22.11.2020 06:00:00 -1,0 -1,7 -3,2 0 0 3 2 N 1031,0 3,2 0 0,0
22.11.2020 05:00:00 -0,1 -0,5 -2,4 0 0 0 0 N 1031,0 4,8 0 0,0
22.11.2020 04:00:00 -0,4 -0,8 -4,4 0 0 2 1 N 1031,0 6 0 0,0
22.11.2020 03:00:00 -1,2 -1,8 -4,9 0 0 2 1 N 1031,3 7 0 0,0
22.11.2020 02:00:00 -1,2 -1,8 -5,1 2 1 3 2 WSW 1031,7 3,2 0 0,0
22.11.2020 01:00:00 -0,4 -1,0 -4,7 0 0 2 1 N 1031,8 0,4 0 0,0
22.11.2020 00:00:00 0,3 -0,3 -3,8 0 0 3 1 N 1031,8 1,0 0 0,0
21.11.2020 23:00:00 1,0 0,4 -3,1 0 0 4 2 N 1032,0 4,2 0 0,0
21.11.2020 22:00:00 1,6 0,9 -2,0 0 0 4 2 N 1032,2 21 0 0,0
21.11.2020 21:00:00 1,8 0,6 -1,4 2 1 3 2 S 1032,5 22 0 0,0
21.11.2020 20:00:00 2,7 1,7 -1,4 0 0 4 2 N 1032,8 26 0 0,0
21.11.2020 19:00:00 3,3 2,1 -1,7 4 2 9 5 S 1032,8 29 0 0,0
21.11.2020 18:00:00 3,7 1,7 -1,1 5 3 8 4 S 1033,0 43 0 0,0
21.11.2020 17:00:00 7,5 2,8 5,5 5 3 12 7 SSW 1032,6 54 42 0,0
21.11.2020 16:00:00 9,1 2,9 8,3 10 6 18 10 SSW 1032,7 20 60 0,0
21.11.2020 15:00:00 9,5 3,2 9,1 11 6 18 10 SSW 1032,8 18 60 0,0
21.11.2020 14:00:00 9,5 3,9 13,2 8 5 14 8 SW 1033,4 20 60 0,0
21.11.2020 13:00:00 7,1 4,9 8,2 8 4 11 6 SSW 1034,1 15 56 0,0
21.11.2020 12:00:00 4,6 4,5 5,2 4 2 9 5 SW 1035,3 2,7 25 0,0
21.11.2020 11:00:00 3,0 2,9 2,4 5 3 9 5 SSW 1035,7 0,3 7 0,0
21.11.2020 10:00:00 1,0 0,9 -0,3 5 3 14 8 S 1035,6 0,2 29 0,2
21.11.2020 09:00:00 -0,5 -0,6 -1,8 4 2 9 5 S 1035,5 0,1 21 0,0
21.11.2020 08:00:00 -0,7 -1,0 -2,2 6 3 10 5 S 1035,4 0,2 0 0,0
21.11.2020 07:00:00 -0,3 -0,6 -3,9 3 2 6 3 S 1035,6 0,1 0 0,0
21.11.2020 06:00:00 -0,1 -0,4 -4,2 3 2 5 3 SE 1035,6 0,2 0 0,0
21.11.2020 05:00:00 0,3 0,0 -4,3 4 2 6 4 S 1035,6 0,4 0 0,0
21.11.2020 04:00:00 0,3 0,0 -4,2 4 2 7 4 SSW 1035,8 0,8 0 0,0
21.11.2020 03:00:00 1,2 0,9 -3,6 4 2 9 5 SSW 1035,8 2,8 0 0,0
21.11.2020 02:00:00 1,0 0,6 -3,1 6 3 8 4 S 1036,0 2,8 0 0,0
21.11.2020 01:00:00 1,8 1,5 -2,6 4 2 6 3 S 1036,5 11 0 0,0
21.11.2020 00:00:00 0,7 0,1 -3,3 4 2 7 4 SSW 1036,7 4,4 0 0,0
20.11.2020 23:00:00 1,6 1,0 -2,7 4 2 6 4 SSE 1036,6 9 0 0,0
20.11.2020 22:00:00 2,0 1,3 -2,4 4 2 8 4 S 1036,9 4,5 0 0,0
20.11.2020 21:00:00 2,5 1,8 -1,0 4 2 7 4 S 1037,0 19 0 0,0
20.11.2020 20:00:00 2,1 1,2 -2,5 4 2 6 3 S 1037,3 24 0 0,0
20.11.2020 19:00:00 2,6 1,0 -2,3 6 3 7 4 S 1036,9 42 0 0,0
20.11.2020 18:00:00 4,0 2,2 -1,2 7 4 8 4 S 1036,6 57 0 0,0
20.11.2020 17:00:00 6,5 2,8 3,4 5 3 6 3 SSE 1036,4 60 17 0,0
20.11.2020 16:00:00 8,1 2,3 6,6 2 1 5 3 ESE 1036,6 60 0 0,0
20.11.2020 15:00:00 9,5 2,6 11,2 3 2 10 5 S 1036,4 58 45 0,0
20.11.2020 14:00:00 9,8 2,2 12,9 2 1 8 5 WSW 1037,0 9 44 0,0
20.11.2020 13:00:00 9,4 2,7 12,9 2 1 7 4 NW 1037,7 41 45 0,0
20.11.2020 12:00:00 7,6 5,2 8,2 4 2 8 4 NNW 1038,0 20 12 0,0
20.11.2020 11:00:00 6,3 5,3 5,1 4 2 9 5 W 1038,3 39 18 0,0
20.11.2020 10:00:00 3,7 3,6 -1,6 3 2 5 3 WSW 1038,0 10 29 0,0
20.11.2020 09:00:00 -0,2 -0,6 -4,1 0 0 10 5 N 1038,1 0,9 10 0,0
20.11.2020 08:00:00 -1,2 -1,6 -4,6 0 0 5 3 N 1037,6 0,4 0 0,0
20.11.2020 07:00:00 0,3 -0,3 -4,2 2 1 6 3 WNW 1037,1 0,3 0 0,0
20.11.2020 06:00:00 1,9 1,2 -2,7 4 2 12 6 WNW 1036,6 1,2 0 0,0
20.11.2020 05:00:00 3,8 2,6 -0,8 10 5 14 7 WNW 1036,7 20 0 0,0
20.11.2020 04:00:00 2,9 1,9 -0,9 4 2 10 6 WNW 1036,5 19 0 0,0
20.11.2020 03:00:00 4,0 2,7 1,2 9 5 16 9 WNW 1036,7 36 0 0,0
20.11.2020 02:00:00 5,1 3,4 2,8 10 6 20 11 NW 1036,9 44 0 0,0
20.11.2020 01:00:00 5,3 3,3 3,9 15 8 22 12 WNW 1037,0 39 0 0,0
20.11.2020 00:00:00 6,0 3,5 4,5 14 7 22 12 WNW 1036,5 45 0 0,0
19.11.2020 23:00:00 6,4 3,5 4,9 16 8 27 15 WNW 1035,9 50 0 0,0

tt = Température de l'air
td = dewpoint
tt 5cm = Température de l'air 5cm
ff = Vitesse du vent
fx = gusts
dd = Direction du vent
ppp = reduced air pressure
vv = visibility
sd = Ensoleillement
rr = Quantités de précipitations

stations d'obs. à proximité